When you browse on this site, cookies collect data to enhance your experience and personalize the content and advertising you see.
Visit our Privacy Policy to learn more. By continuing to use the site, you agree to this use of cookies and data.
  • In Austria
  • List of Countries
  • For 7 days
  • Water Temperature
  • Weather Map
  • News
  • Weather Widgets
  • user-avatar
    Login

    Hourly Weather Mohyliv-Podil'sky

    Today, 20 August, Tuesday

    Time Temperature Precipitation Wind Pressure Humidity
    00:00 +20°C° 0 mm 2 mps 745 mmHg 49%
    01:00 +21°C° 0 mm 1 mps 745 mmHg 49%
    02:00 +19°C° 0 mm 2 mps 745 mmHg 50%
    03:00 +20°C° 0 mm 1 mps 745 mmHg 50%
    04:00 +20°C° 0 mm 1 mps 746 mmHg 51%
    05:00 +19°C° 0 mm 1 mps 746 mmHg 51%
    06:00 +21°C° 0 mm 1 mps 746 mmHg 47%
    07:00 +23°C° 0 mm 1 mps 746 mmHg 43%
    08:00 +26°C° 0 mm 1 mps 747 mmHg 38%
    09:00 +28°C° 0 mm 1 mps 747 mmHg 34%
    10:00 +29°C° 0 mm 2 mps 747 mmHg 31%
    11:00 +31°C° 0 mm 2 mps 747 mmHg 27%
    12:00 +32°C° 0 mm 2 mps 747 mmHg 26%
    13:00 +34°C° 0 mm 2 mps 747 mmHg 24%
    14:00 +35°C° 0 mm 2 mps 746 mmHg 23%
    15:00 +34°C° 0 mm 2 mps 746 mmHg 23%
    16:00 +34°C° 0 mm 2 mps 746 mmHg 23%
    17:00 +34°C° 0 mm 2 mps 746 mmHg 23%
    18:00 +31°C° 0 mm 2 mps 746 mmHg 29%
    19:00 +28°C° 0 mm 2 mps 747 mmHg 34%
    20:00 +25°C° 0 mm 3 mps 747 mmHg 39%
    21:00 +25°C° 0 mm 3 mps 747 mmHg 42%
    22:00 +24°C° 0 mm 3 mps 747 mmHg 44%
    23:00 +23°C° 0 mm 2 mps 747 mmHg 46%

    Tomorrow, 21 August, Wednesday

    Time Temperature Precipitation Wind Pressure Humidity
    00:00 +21°C° 0 mm 2 mps 747 mmHg 48%
    01:00 +21°C° 0 mm 2 mps 747 mmHg 50%
    02:00 +20°C° 0 mm 2 mps 747 mmHg 52%
    03:00 +20°C° 0 mm 2 mps 746 mmHg 53%
    04:00 +19°C° 0 mm 2 mps 746 mmHg 54%
    05:00 +19°C° 0 mm 2 mps 746 mmHg 56%
    06:00 +21°C° 0 mm 2 mps 746 mmHg 52%
    07:00 +24°C° 0 mm 2 mps 746 mmHg 48%
    08:00 +26°C° 0 mm 2 mps 747 mmHg 44%
    09:00 +28°C° 0 mm 2 mps 747 mmHg 40%
    10:00 +30°C° 0 mm 2 mps 747 mmHg 35%
    11:00 +31°C° 0 mm 2 mps 746 mmHg 31%
    12:00 +32°C° 0 mm 2 mps 746 mmHg 29%
    13:00 +34°C° 0 mm 2 mps 746 mmHg 26%
    14:00 +35°C° 0 mm 2 mps 746 mmHg 24%
    15:00 +34°C° 0 mm 2 mps 745 mmHg 25%
    16:00 +34°C° 0 mm 3 mps 745 mmHg 25%
    17:00 +34°C° 0 mm 3 mps 745 mmHg 26%
    18:00 +30°C° 0 mm 3 mps 745 mmHg 32%
    19:00 +28°C° 0 mm 2 mps 745 mmHg 38%
    20:00 +26°C° 0 mm 2 mps 745 mmHg 43%
    21:00 +25°C° 0 mm 2 mps 746 mmHg 46%
    22:00 +24°C° 0 mm 2 mps 746 mmHg 49%
    23:00 +23°C° 0 mm 2 mps 746 mmHg 52%

    Day after tomorrow, 22 August, Thursday

    Time Temperature Precipitation Wind Pressure Humidity
    00:00 +21°C° 0 mm 2 mps 746 mmHg 58%
    01:00 +21°C° 0 mm 2 mps 747 mmHg 63%
    02:00 +20°C° 0 mm 3 mps 747 mmHg 69%
    03:00 +20°C° 0 mm 3 mps 747 mmHg 76%
    04:00 +20°C° 0 mm 4 mps 747 mmHg 83%
    05:00 +20°C° 0 mm 5 mps 747 mmHg 90%
    06:00 +21°C° 0 mm 5 mps 747 mmHg 85%
    07:00 +21°C° 0 mm 5 mps 748 mmHg 80%
    08:00 +22°C° 0 mm 6 mps 748 mmHg 75%
    09:00 +23°C° 0 mm 6 mps 748 mmHg 72%
    10:00 +23°C° 0 mm 6 mps 748 mmHg 70%
    11:00 +23°C° 0 mm 6 mps 748 mmHg 67%
    12:00 +24°C° 0 mm 6 mps 748 mmHg 64%
    13:00 +26°C° 0 mm 6 mps 748 mmHg 61%
    14:00 +27°C° 0 mm 5 mps 748 mmHg 59%
    15:00 +26°C° 0 mm 5 mps 748 mmHg 60%
    16:00 +26°C° 0 mm 5 mps 748 mmHg 61%
    17:00 +26°C° 0 mm 5 mps 748 mmHg 62%
    18:00 +23°C° 0 mm 5 mps 748 mmHg 67%
    19:00 +22°C° 0 mm 4 mps 748 mmHg 73%
    20:00 +20°C° 0 mm 3 mps 748 mmHg 79%
    21:00 +19°C° 0 mm 3 mps 749 mmHg 82%
    22:00 +18°C° 0 mm 3 mps 749 mmHg 86%
    23:00 +17°C° 0 mm 3 mps 749 mmHg 89%

    23 August, Friday

    Time Temperature Precipitation Wind Pressure Humidity
    00:00 +17°C° 0 mm 3 mps 749 mmHg 90%
    01:00 +17°C° 0 mm 3 mps 749 mmHg 91%
    02:00 +16°C° 0 mm 3 mps 748 mmHg 92%
    03:00 +16°C° 0 mm 3 mps 748 mmHg 92%
    04:00 +16°C° 0 mm 3 mps 748 mmHg 92%
    05:00 +16°C° 0 mm 3 mps 748 mmHg 92%
    06:00 +17°C° 0 mm 3 mps 748 mmHg 85%
    07:00 +18°C° 0 mm 3 mps 749 mmHg 79%
    08:00 +20°C° 0 mm 4 mps 749 mmHg 72%
    09:00 +21°C° 0 mm 4 mps 749 mmHg 65%
    10:00 +23°C° 0 mm 4 mps 749 mmHg 59%
    11:00 +26°C° 0 mm 4 mps 749 mmHg 52%
    12:00 +26°C° 0 mm 4 mps 749 mmHg 50%
    13:00 +27°C° 0 mm 4 mps 749 mmHg 49%
    14:00 +28°C° 0 mm 5 mps 749 mmHg 47%
    15:00 +28°C° 0 mm 5 mps 748 mmHg 48%
    16:00 +27°C° 0 mm 5 mps 748 mmHg 48%
    17:00 +27°C° 0 mm 5 mps 748 mmHg 49%
    18:00 +25°C° 0 mm 5 mps 748 mmHg 57%
    19:00 +22°C° 0 mm 4 mps 749 mmHg 64%
    20:00 +20°C° 0 mm 4 mps 749 mmHg 72%
    21:00 +19°C° 0 mm 3 mps 749 mmHg 75%
    22:00 +18°C° 0 mm 3 mps 749 mmHg 78%
    23:00 +17°C° 0 mm 3 mps 749 mmHg 81%

    24 August, Saturday

    Time Temperature Precipitation Wind Pressure Humidity
    00:00 +17°C° 0 mm 3 mps 749 mmHg 82%
    01:00 +16°C° 0 mm 3 mps 749 mmHg 83%
    02:00 +16°C° 0 mm 3 mps 749 mmHg 83%
    03:00 +14°C° 0 mm 3 mps 749 mmHg 85%
    04:00 +14°C° 0 mm 3 mps 749 mmHg 86%
    05:00 +13°C° 0 mm 3 mps 749 mmHg 87%
    06:00 +16°C° 0 mm 3 mps 749 mmHg 80%
    07:00 +18°C° 0 mm 3 mps 749 mmHg 72%
    08:00 +20°C° 0 mm 3 mps 749 mmHg 65%
    09:00 +22°C° 0 mm 3 mps 749 mmHg 58%
    10:00 +25°C° 0 mm 3 mps 749 mmHg 51%
    11:00 +27°C° 0 mm 3 mps 749 mmHg 43%
    12:00 +28°C° 0 mm 3 mps 748 mmHg 40%
    13:00 +29°C° 0 mm 3 mps 748 mmHg 36%
    14:00 +30°C° 0 mm 3 mps 747 mmHg 32%
    15:00 +30°C° 0 mm 3 mps 747 mmHg 33%
    16:00 +30°C° 0 mm 3 mps 747 mmHg 35%
    17:00 +30°C° 0 mm 3 mps 747 mmHg 36%
    18:00 +28°C° 0 mm 3 mps 747 mmHg 44%
    19:00 +25°C° 0 mm 3 mps 746 mmHg 53%
    20:00 +22°C° 0 mm 3 mps 746 mmHg 61%
    21:00 +21°C° 0 mm 3 mps 746 mmHg 65%
    22:00 +20°C° 0 mm 3 mps 747 mmHg 69%
    23:00 +19°C° 0 mm 3 mps 747 mmHg 73%

    25 August, Sunday

    Time Temperature Precipitation Wind Pressure Humidity
    00:00 +19°C° 0 mm 3 mps 746 mmHg 74%
    01:00 +18°C° 0 mm 3 mps 746 mmHg 76%
    02:00 +18°C° 0 mm 2 mps 746 mmHg 78%
    03:00 +18°C° 0 mm 2 mps 746 mmHg 79%
    04:00 +17°C° 0 mm 2 mps 746 mmHg 81%
    05:00 +17°C° 0 mm 2 mps 746 mmHg 82%
    06:00 +19°C° 0 mm 2 mps 746 mmHg 75%
    07:00 +21°C° 0 mm 2 mps 746 mmHg 67%
    08:00 +24°C° 0 mm 2 mps 746 mmHg 60%
    09:00 +26°C° 0 mm 2 mps 746 mmHg 52%
    10:00 +28°C° 0 mm 2 mps 746 mmHg 45%
    11:00 +31°C° 0 mm 2 mps 746 mmHg 37%
    12:00 +31°C° 0 mm 2 mps 746 mmHg 33%
    13:00 +32°C° 0 mm 1 mps 746 mmHg 30%
    14:00 +33°C° 0 mm 1 mps 746 mmHg 26%
    15:00 +34°C° 0 mm 2 mps 745 mmHg 27%
    16:00 +34°C° 0 mm 3 mps 745 mmHg 27%
    17:00 +33°C° 0 mm 4 mps 745 mmHg 28%
    18:00 +30°C° 0 mm 3 mps 745 mmHg 35%
    19:00 +27°C° 0 mm 3 mps 745 mmHg 42%
    20:00 +25°C° 0 mm 3 mps 745 mmHg 49%
    21:00 +24°C° 0 mm 3 mps 746 mmHg 51%
    22:00 +22°C° 0 mm 4 mps 746 mmHg 54%
    23:00 +22°C° 0 mm 4 mps 746 mmHg 56%
    Show more